#timestamp,LO_Frequency,Hit,StdDev 
1618038015.2,286047001.5,N
1618038035.1,286047001.4,N
1618038036.0,286047001.4,N
1618038055.8,286047001.4,N
1618038075.6,286047003.3,N
1618038095.5,286047004.5,N
1618038115.3,286047004.5,N
1618038135.2,286047005.3,N
1618038155.9,286047002.1,N
1618038175.7,286046998.7,N
1618038195.6,286046996.9,N
1618038215.4,286046998.6,N
1618038235.2,286047002.4,N
1618038255.1,286047000.3,N
1618038256.0,286047000.3,N
1618038275.8,286046999.8,N
1618038295.7,286047001.2,N
1618038315.5,286046998.4,N
1618038335.3,286047000.3,N
1618038355.2,286046998.7,N
1618038375.0,286047001.1,N
1618038375.9,286047001.1,N
1618038395.7,286047002.2,N
1618038415.6,286047001.8,N
1618038435.4,286047005.7,N
1618038455.3,286047001.3,N
1618038475.1,286047003.3,N
1618038476.0,286047003.3,N
1618038495.8,286047005.4,N
1618038515.7,286047005.4,N
1618038535.5,286047005.1,N
1618038555.4,286047003.7,N
1618038575.2,286047000.9,N
1618038595.0,286047001.9,N
1618038595.9,286047001.9,N
1618038615.8,286047002.0,N
1618038635.6,286047003.9,N
1618038655.4,286047004.1,N
1618038675.3,286047004.2,N
1618038695.1,286047004.4,N
1618038715.9,286047003.2,N
1618038735.7,286047004.3,N
1618038755.5,286047002.1,N
1618038775.4,286047004.1,N
1618038795.2,286047006.0,Y
1618038815.1,286047000.1,P
1618038816.0,286047000.1,N
1618038835.8,286046997.0,N
1618038855.6,286046997.7,N
1618038875.5,286046995.4,N
1618038895.3,286046996.3,N
1618038915.1,286046995.1,N
1618038935.9,286046997.4,N
1618038955.7,286046998.7,N
1618038975.6,286046998.4,N
1618038995.4,286047000.2,N
1618039015.2,286047002.3,N
1618039035.1,286046999.3,N
1618039036.0,286046999.3,N
1618039055.8,286046996.6,N
1618039075.6,286046996.7,N
1618039095.5,286046998.1,N
1618039115.3,286046998.5,N
1618039135.2,286046997.1,N
1618039155.9,286047011.9,Y
1618039175.7,286047000.4,P
1618039195.6,286047000.7,N
1618039215.4,286047002.4,N
1618039235.2,286047002.3,N
1618039255.1,286047000.8,N
1618039256.0,286047000.8,N
1618039275.8,286046998.7,N
1618039295.7,286046996.6,N
1618039315.5,286046996.6,N
1618039335.3,286046998.9,N
1618039355.2,286046999.0,N
1618039375.0,286046998.9,N
1618039375.9,286046998.9,N
1618039395.7,286047001.1,N
1618039415.6,286046999.2,N
1618039435.4,286046998.5,N
1618039455.3,286046999.5,N
1618039475.1,286046998.3,N
1618039476.0,286046998.3,N
1618039495.8,286046999.3,N
1618039515.7,286046997.2,N
1618039535.5,286046994.5,Y
1618039555.4,286046997.9,P
1618039575.2,286046998.4,N
1618039595.0,286047001.2,N
1618039595.9,286047001.2,N
1618039615.8,286047000.0,N
1618039635.6,286047000.2,N
1618039655.4,286046998.7,N
1618039675.3,286046999.6,N
1618039695.1,286046994.9,Y
1618039715.9,286046995.9,P
1618039735.7,286046997.3,N
1618039755.5,286046998.7,N
1618039775.4,286047004.4,Y
1618039795.2,286047005.2,P
1618039815.1,286047002.2,N
1618039816.0,286047002.2,N
1618039835.8,286047000.3,N
1618039855.6,286046996.5,N
1618039875.5,286046999.5,N
1618039895.3,286046998.3,N
1618039915.1,286046999.3,N
1618039935.9,286046998.5,N
1618039955.7,286046998.5,N
1618039975.6,286046998.5,N
1618039995.4,286046996.5,N
1618040015.2,286046995.3,N
1618040035.1,286046997.9,N
1618040036.0,286046997.9,N
1618040055.8,286046999.4,N
1618040075.6,286046996.7,N
1618040095.5,286046998.7,N
1618040115.3,286046998.6,N
1618040135.2,286046999.4,N
1618040155.9,286046997.8,N
1618040205.8,286046993.4,E
1618040215.7,286046999.6,N
1618040235.5,286047000.1,P
1618040255.4,286046998.5,P
1618040275.2,286046998.8,N
1618040295.0,286046997.0,Y
1618040295.9,286046997.0,P
1618040315.8,286046998.3,N
1618040335.6,286047000.8,N
1618040355.4,286047000.7,N
1618040375.3,286046999.8,N
1618040395.1,286047000.0,N
1618040415.9,286047000.2,N
1618040435.7,286047002.6,N
1618040455.5,286046999.8,N
1618040475.4,286046999.8,N
1618040495.2,286047002.4,N
1618040515.0,286047002.6,N
1618040516.0,286047002.6,N
1618040535.8,286047002.3,N
1618040555.6,286047002.1,N
1618040575.5,286047002.0,N
1618040595.3,286047001.7,N
1618040615.1,286047001.9,N
1618040635.9,286047002.8,N
1618040655.7,286047000.0,N
1618040675.6,286046999.9,N
1618040695.4,286047002.7,N
1618040715.2,286047002.7,N
1618040735.1,286047002.5,N
1618040736.0,286047002.5,N
1618040755.8,286047000.4,N
1618040775.6,286047000.4,N
1618040795.5,286047000.9,N
1618040815.3,286047000.5,N
1618040835.2,286047000.8,N
1618040855.9,286046998.9,N
1618040875.7,286046998.1,N
1618040895.6,286046997.2,N
1618040915.4,286046995.3,Y
1618040935.3,286046998.0,P
1618040955.1,286046996.1,N
1618040956.0,286046996.1,N
1618040975.8,286046993.6,Y
1618040995.7,286046995.1,P
1618041015.5,286046995.0,P
1618041035.4,286046995.3,P
1618041055.2,286046997.5,N
1618041075.0,286046995.4,Y
1618041075.9,286046995.4,P
1618041095.8,286046999.3,N
1618041115.6,286046996.6,N
1618041135.4,286046998.0,N
1618041155.3,286046997.9,N
1618041175.1,286046996.7,N
1618041195.9,286046998.9,N
1618041215.7,286046999.4,N
1618041235.5,286046998.2,N
1618041255.4,286047000.5,N
1618041275.2,286046998.2,N
1618041295.0,286046998.3,N
1618041295.9,286046998.3,N
1618041315.8,286046998.3,N
1618041335.6,286046995.1,Y
1618041355.5,286046997.2,P
1618041375.3,286046999.2,N
1618041395.1,286047001.2,N
1618041415.9,286046999.8,N
1618041435.7,286046999.7,N
1618041455.5,286047004.3,Y
1618041475.4,286047002.2,P
1618041495.2,286047004.0,N
1618041515.1,286047002.2,N
1618041516.0,286047002.2,N
1618041535.8,286047002.2,N
1618041555.6,286047001.8,N
1618041575.5,286047003.8,N
1618041595.3,286047005.9,Y
